Flag for Pitcairn Islands Weather past 2 weeks in Adamstown, Pitcairn Islands

Now
66 °F

Mild.


Feels Like: 66 °F
Forecast: 67 / 73 °F
Wind: 14 mph from Southeast

Location: Rikitea

Current Time: Sep 4, 2015 at 8:47:07 AM

Latest Report: Sep 4, 2015 at 8:00 AM


Visibility: N/A

Pressure: 30.09 "Hg

Humidity: 56%

Dew point: 50 °F

Location of AdamstownLocation

Historic Weather in Adamstown — Graph

°F

Adamstown temperature yesterday

Maximum temperature yesterday: 67 °F (at 4:00 PM)
Minimum temperature yesterday: 63 °F (at 1:00 AM)
Average temperature yesterday: 65 °F

Past Weeks' High & Low Weather Summary

 TemperatureHumidityPressure
High76 °F (Aug 30, 12:00 PM)100% (Aug 20, 7:00 AM)30.24 "Hg (Aug 20, 7:00 AM)
Low61 °F (Aug 26, 6:00 AM)52% (Aug 22, 4:00 PM)29.87 "Hg (Aug 20, 7:00 AM)
Average68 °F77%30.05 "Hg
* Reported Aug 20 7:00 AM — Sep 4 7:00 AM, Adamstown, Weather by CustomWeather, © 2015

Note: Actual official high and low records may vary slightly from our data, if they occured in-between our weather recording intervals... More about our weather records

Advertising

Adamstown weather history for previous 24 hours

 ConditionsComfort  
Time TempWeatherWind HumidityBarometerVisibility
7:00 AM
Fri, Sep 4
66 °FScattered clouds.10 mph63%30.08 "Hg19 mi
6:00 AM65 °FMild.10 mph71%30.06 "HgN/A
5:00 AM65 °FMild.14 mph56%30.06 "HgN/A
4:00 AM65 °FMild.15 mph60%30.06 "HgN/A
3:00 AM65 °FMild.14 mph57%30.07 "HgN/A
2:00 AM66 °FMild.15 mph53%30.10 "HgN/A
1:00 AM66 °FMild.13 mph60%30.11 "HgN/A
12:00 AM66 °FMild.18 mph52%30.13 "HgN/A
11:00 PM
Thu, Sep 3
66 °FMild.18 mph63%30.13 "HgN/A
10:00 PM66 °FMild.18 mph64%30.13 "HgN/A
9:00 PM66 °FMild.17 mph64%30.11 "HgN/A
8:00 PM66 °FMild.17 mph65%30.10 "HgN/A
7:00 PM65 °FMild.13 mph64%30.09 "HgN/A
6:00 PM65 °FPassing clouds.14 mph65%30.08 "Hg25 mi
5:00 PM66 °FPassing clouds.12 mph61%30.07 "Hg25 mi
4:00 PM67 °FPassing clouds.10 mph58%30.07 "Hg25 mi
3:00 PM67 °FMild.12 mph52%30.08 "HgN/A
2:00 PM67 °FPassing clouds.12 mph54%30.10 "Hg25 mi
1:00 PM66 °FScattered clouds.13 mph61%30.12 "Hg19 mi
12:00 PM67 °FPartly sunny.15 mph63%30.14 "Hg19 mi
11:00 AM66 °FScattered clouds.14 mph65%30.14 "Hg19 mi
10:00 AM67 °FScattered clouds.15 mph69%30.13 "Hg16 mi
9:00 AM66 °FPassing clouds.15 mph67%30.11 "Hg16 mi
8:00 AM65 °FMild.15 mph67%30.10 "HgN/A
Weather by CustomWeather, © 2015

See weather overviewHow to use our weather pages